Flag for U.S.A. Weather past 2 weeks in Sioux Falls, South Dakota, U.S.A.

Now
71 °F

High level clouds.


Feels Like: 73 °F
Forecast: 53 / 81 °F
Wind: 7 mph from South

Location: Foss Field

Current Time: Aug 29, 2015 at 4:07:00 PM

Latest Report: Aug 29, 2015 at 2:56 PM


Visibility: 10 mi

Pressure: 30.03 "Hg

Humidity: 73%

Dew point: 62 °F

Location of Sioux FallsLocation

Historic Weather in Sioux Falls — Graph

°F

Sioux Falls temperature yesterday

Maximum temperature yesterday: 71 °F (at 3:56 PM)
Minimum temperature yesterday: 58 °F (at 11:56 PM)
Average temperature yesterday: 66 °F

Past Weeks' High & Low Weather Summary

 TemperatureHumidityPressure
High91 °F (Aug 14, 2:56 PM)97% (Aug 17, 12:00 AM)30.22 "Hg (Aug 17, 12:00 AM)
Low43 °F (Aug 25, 6:56 AM)34% (Aug 19, 2:56 AM)29.53 "Hg (Aug 18, 5:56 PM)
Average66 °F74%29.94 "Hg
* Reported Aug 14 2:56 PM — Aug 29 2:56 PM, Sioux Falls, Weather by CustomWeather, © 2015

Note: Actual official high and low records may vary slightly from our data, if they occured in-between our weather recording intervals... More about our weather records

Advertising

Sioux Falls weather history for previous 24 hours

 ConditionsComfort  
Time TempWeatherWind HumidityBarometerVisibility
2:56 PM
Sat, Aug 29
71 °FHigh level clouds.7 mph73%30.03 "Hg10 mi
1:56 PM69 °FSunny.7 mph76%30.05 "Hg10 mi
12:56 PM67 °FSunny.7 mph79%30.07 "Hg10 mi
11:56 AM66 °FPassing clouds.6 mph78%30.08 "Hg10 mi
10:56 AM63 °FPassing clouds.5 mph84%30.08 "Hg10 mi
9:56 AM59 °FPartly sunny.5 mph93%30.07 "Hg10 mi
8:56 AM57 °FFog.3 mph96%30.06 "Hg6 mi
7:56 AM55 °FSunny.No wind96%30.08 "Hg10 mi
6:56 AM52 °FFog.No wind97%30.06 "Hg4 mi
5:56 AM52 °FClear.No wind93%30.03 "Hg9 mi
4:56 AM54 °FClear.No wind97%30.03 "Hg10 mi
3:56 AM54 °FClear.No wind93%30.02 "Hg10 mi
3:02 AM54 °FFog.No wind97%30.02 "Hg1 mi
1:56 AM55 °FClear.No wind96%30.03 "Hg10 mi
12:56 AM56 °FClear.No wind97%30.03 "Hg10 mi
11:56 PM
Fri, Aug 28
58 °FPassing clouds.No wind93%30.02 "Hg10 mi
10:56 PM59 °FPassing clouds.3 mph90%30.02 "Hg10 mi
9:56 PM61 °FPassing clouds.7 mph87%30.01 "Hg10 mi
8:56 PM62 °FScattered clouds.6 mph86%30.00 "Hg10 mi
7:56 PM65 °FOvercast.9 mph81%29.98 "Hg10 mi
6:56 PM69 °FMostly cloudy.10 mph76%29.96 "Hg10 mi
5:56 PM70 °FBroken clouds.12 mph73%29.94 "Hg10 mi
5:02 PM71 °FBroken clouds.14 mph71%29.96 "Hg10 mi
Weather by CustomWeather, © 2015

See weather overviewHow to use our weather pages